When you browse on this site, cookies collect data to enhance your experience and personalize the content and advertising you see.
Visit our Privacy Policy to learn more. By continuing to use the site, you agree to this use of cookies and data.
  • In Spain
  • List of Countries
  • For 7 days
  • Water Temperature
  • Weather Map
  • Weather Widgets
  • user-avatar
    Login

    Hourly Weather Freire

    Today, 27 January, Monday

    Time Temperature Precipitation Wind Pressure Humidity
    00:00 +10°C° 0 mm 0 mps 755 mmHg 90%
    01:00 +9°C° 0 mm 0 mps 754 mmHg 92%
    02:00 +10°C° 0 mm 0 mps 754 mmHg 89%
    03:00 +10°C° 0 mm 0 mps 754 mmHg 86%
    04:00 +10°C° 0 mm 0 mps 754 mmHg 82%
    05:00 +12°C° 0 mm 0 mps 754 mmHg 71%
    06:00 +14°C° 0 mm 0 mps 753 mmHg 61%
    07:00 +16°C° 0 mm 0 mps 753 mmHg 50%
    08:00 +21°C° 0 mm 1 mps 753 mmHg 42%
    09:00 +24°C° 0 mm 1 mps 753 mmHg 35%
    10:00 +27°C° 0 mm 1 mps 753 mmHg 28%
    11:00 +28°C° 0 mm 2 mps 752 mmHg 29%
    12:00 +29°C° 0 mm 3 mps 752 mmHg 30%
    13:00 +30°C° 0 mm 3 mps 752 mmHg 30%
    14:00 +29°C° 0 mm 4 mps 752 mmHg 35%
    15:00 +28°C° 0 mm 4 mps 752 mmHg 40%
    16:00 +27°C° 0 mm 4 mps 751 mmHg 44%
    17:00 +25°C° 0 mm 4 mps 751 mmHg 54%
    18:00 +21°C° 0 mm 3 mps 752 mmHg 65%
    19:00 +19°C° 0 mm 2 mps 752 mmHg 75%
    20:00 +18°C° 0 mm 1 mps 752 mmHg 82%
    21:00 +16°C° 0 mm 1 mps 752 mmHg 88%
    22:00 +14°C° 0 mm 0 mps 752 mmHg 95%
    23:00 +14°C° 0 mm 0 mps 752 mmHg 94%

    Tomorrow, 28 January, Tuesday

    Time Temperature Precipitation Wind Pressure Humidity
    00:00 +15°C° 0 mm 0 mps 751 mmHg 93%
    01:00 +15°C° 0 mm 0 mps 751 mmHg 93%
    02:00 +15°C° 0 mm 0 mps 750 mmHg 93%
    03:00 +16°C° 0 mm 1 mps 750 mmHg 93%
    04:00 +18°C° 0 mm 1 mps 750 mmHg 93%
    05:00 +18°C° 0.1 mm 1 mps 750 mmHg 94%
    06:00 +18°C° 0.1 mm 1 mps 750 mmHg 95%
    07:00 +18°C° 0.1 mm 1 mps 750 mmHg 96%
    08:00 +18°C° 0.1 mm 2 mps 750 mmHg 86%
    09:00 +19°C° 0.1 mm 3 mps 751 mmHg 76%
    10:00 +20°C° 0.1 mm 3 mps 751 mmHg 66%
    11:00 +21°C° 0 mm 4 mps 751 mmHg 56%
    12:00 +22°C° 0 mm 4 mps 751 mmHg 46%
    13:00 +23°C° 0 mm 5 mps 752 mmHg 37%
    14:00 +22°C° 0 mm 4 mps 751 mmHg 38%
    15:00 +21°C° 0 mm 4 mps 751 mmHg 39%
    16:00 +20°C° 0 mm 4 mps 751 mmHg 40%
    17:00 +18°C° 0 mm 4 mps 752 mmHg 49%
    18:00 +16°C° 0 mm 3 mps 752 mmHg 57%
    19:00 +14°C° 0 mm 2 mps 753 mmHg 66%
    20:00 +12°C° 0 mm 1 mps 753 mmHg 74%
    21:00 +11°C° 0 mm 1 mps 753 mmHg 82%
    22:00 +8°C° 0 mm 0 mps 754 mmHg 91%
    23:00 +8°C° 0 mm 0 mps 754 mmHg 91%

    Day after tomorrow, 29 January, Wednesday

    Time Temperature Precipitation Wind Pressure Humidity
    00:00 +7°C° 0 mm 0 mps 753 mmHg 92%
    01:00 +7°C° 0 mm 0 mps 753 mmHg 92%
    02:00 +6°C° 0 mm 0 mps 753 mmHg 93%
    03:00 +7°C° 0 mm 1 mps 754 mmHg 95%
    04:00 +6°C° 0 mm 1 mps 754 mmHg 96%
    05:00 +8°C° 0 mm 1 mps 754 mmHg 89%
    06:00 +10°C° 0 mm 1 mps 754 mmHg 82%
    07:00 +11°C° 0 mm 1 mps 754 mmHg 74%
    08:00 +14°C° 0 mm 2 mps 754 mmHg 63%
    09:00 +16°C° 0 mm 2 mps 753 mmHg 51%
    10:00 +19°C° 0 mm 2 mps 753 mmHg 39%
    11:00 +20°C° 0 mm 3 mps 753 mmHg 35%
    12:00 +22°C° 0 mm 3 mps 753 mmHg 31%
    13:00 +24°C° 0 mm 3 mps 753 mmHg 27%
    14:00 +24°C° 0 mm 3 mps 752 mmHg 29%
    15:00 +24°C° 0 mm 3 mps 752 mmHg 30%
    16:00 +24°C° 0 mm 3 mps 752 mmHg 32%
    17:00 +20°C° 0 mm 3 mps 752 mmHg 41%
    18:00 +18°C° 0 mm 2 mps 753 mmHg 50%
    19:00 +15°C° 0 mm 2 mps 753 mmHg 59%
    20:00 +13°C° 0 mm 1 mps 754 mmHg 69%
    21:00 +11°C° 0 mm 1 mps 754 mmHg 79%
    22:00 +8°C° 0 mm 0 mps 754 mmHg 89%
    23:00 +7°C° 0 mm 0 mps 754 mmHg 89%

    30 January, Thursday

    Time Temperature Precipitation Wind Pressure Humidity
    00:00 +7°C° 0 mm 0 mps 754 mmHg 88%
    01:00 +7°C° 0 mm 1 mps 753 mmHg 87%
    02:00 +6°C° 0 mm 0 mps 753 mmHg 88%
    03:00 +5°C° 0 mm 0 mps 753 mmHg 88%
    04:00 +5°C° 0 mm 0 mps 753 mmHg 89%
    05:00 +7°C° 0 mm 0 mps 753 mmHg 81%
    06:00 +10°C° 0 mm 1 mps 753 mmHg 73%
    07:00 +12°C° 0 mm 1 mps 753 mmHg 65%
    08:00 +15°C° 0 mm 1 mps 753 mmHg 53%
    09:00 +20°C° 0 mm 1 mps 752 mmHg 42%
    10:00 +24°C° 0 mm 1 mps 752 mmHg 30%
    11:00 +25°C° 0 mm 2 mps 752 mmHg 27%
    12:00 +27°C° 0 mm 2 mps 751 mmHg 24%
    13:00 +29°C° 0 mm 3 mps 751 mmHg 21%
    14:00 +28°C° 0 mm 3 mps 751 mmHg 25%
    15:00 +27°C° 0 mm 3 mps 751 mmHg 29%
    16:00 +27°C° 0 mm 3 mps 751 mmHg 34%
    17:00 +24°C° 0 mm 3 mps 751 mmHg 43%
    18:00 +20°C° 0 mm 2 mps 752 mmHg 53%
    19:00 +17°C° 0 mm 2 mps 752 mmHg 63%
    20:00 +15°C° 0 mm 1 mps 752 mmHg 74%
    21:00 +13°C° 0 mm 1 mps 752 mmHg 85%
    22:00 +10°C° 0 mm 0 mps 752 mmHg 95%
    23:00 +10°C° 0 mm 0 mps 752 mmHg 96%

    31 January, Friday

    Time Temperature Precipitation Wind Pressure Humidity
    00:00 +10°C° 0 mm 0 mps 752 mmHg 96%
    01:00 +10°C° 0 mm 0 mps 752 mmHg 97%
    02:00 +10°C° 0 mm 0 mps 752 mmHg 97%
    03:00 +10°C° 0 mm 0 mps 752 mmHg 96%
    04:00 +10°C° 0 mm 0 mps 752 mmHg 96%
    05:00 +12°C° 0 mm 0 mps 752 mmHg 89%
    06:00 +13°C° 0 mm 0 mps 752 mmHg 82%
    07:00 +15°C° 0 mm 0 mps 752 mmHg 76%
    08:00 +18°C° 0 mm 0 mps 751 mmHg 65%
    09:00 +24°C° 0 mm 1 mps 751 mmHg 54%
    10:00 +28°C° 0 mm 1 mps 751 mmHg 43%
    11:00 +29°C° 0 mm 1 mps 751 mmHg 41%
    12:00 +30°C° 0 mm 2 mps 750 mmHg 39%
    13:00 +31°C° 0 mm 3 mps 750 mmHg 36%
    14:00 +30°C° 0 mm 3 mps 750 mmHg 40%
    15:00 +29°C° 0 mm 3 mps 749 mmHg 43%
    16:00 +28°C° 0 mm 4 mps 749 mmHg 46%
    17:00 +25°C° 0 mm 3 mps 749 mmHg 56%
    18:00 +23°C° 0 mm 2 mps 750 mmHg 66%
    19:00 +20°C° 0 mm 1 mps 750 mmHg 75%
    20:00 +18°C° 0 mm 1 mps 750 mmHg 83%
    21:00 +16°C° 0 mm 1 mps 750 mmHg 90%
    22:00 +13°C° 0 mm 0 mps 750 mmHg 97%
    23:00 +13°C° 0 mm 0 mps 750 mmHg 98%

    1 February, Saturday

    Time Temperature Precipitation Wind Pressure Humidity
    00:00 +13°C° 0 mm 0 mps 750 mmHg 98%
    01:00 +12°C° 0 mm 0 mps 749 mmHg 98%
    02:00 +12°C° 0 mm 0 mps 749 mmHg 98%
    03:00 +12°C° 0 mm 0 mps 749 mmHg 98%
    04:00 +13°C° 0 mm 0 mps 749 mmHg 98%
    05:00 +15°C° 0 mm 1 mps 748 mmHg 93%
    06:00 +16°C° 0 mm 1 mps 748 mmHg 89%
    07:00 +18°C° 0 mm 1 mps 748 mmHg 85%
    08:00 +20°C° 0 mm 1 mps 748 mmHg 74%
    09:00 +23°C° 0 mm 2 mps 747 mmHg 64%
    10:00 +25°C° 0 mm 2 mps 747 mmHg 54%
    11:00 +26°C° 0.2 mm 3 mps 747 mmHg 52%
    12:00 +26°C° 0.2 mm 4 mps 747 mmHg 51%
    13:00 +26°C° 0.2 mm 5 mps 747 mmHg 50%
    14:00 +22°C° 0.3 mm 4 mps 747 mmHg 62%
    15:00 +19°C° 0.3 mm 4 mps 748 mmHg 73%
    16:00 +15°C° 0.3 mm 4 mps 748 mmHg 85%
    17:00 +14°C° 0.6 mm 3 mps 749 mmHg 89%
    18:00 +14°C° 0.6 mm 2 mps 749 mmHg 93%
    19:00 +13°C° 0.6 mm 0 mps 750 mmHg 97%
    20:00 +12°C° 0.2 mm 0 mps 751 mmHg 97%
    21:00 +11°C° 0.2 mm 0 mps 751 mmHg 98%
    22:00 +10°C° 0.2 mm 0 mps 752 mmHg 98%
    23:00 +10°C° 0 mm 0 mps 752 mmHg 97%
    Show more